Hatteras, NC

9:49 PM EST on November 21, 2017 (GMT -0500)
Mitchell

Weather History for KHSE - August, 2013

Change the Weather History Date:

Saturday, August 10, 2013

  Actual Average Record
Temperature  
Mean Temperature 82 °F 79 °F  
Max Temperature 88 °F 85 °F 93 °F (2016)
Min Temperature 75 °F 73 °F 64 °F (1975)
Degree Days  
Heating Degree Days 0 0  
Month to date heating degree days 0 0  
Since 1 June heating degree days 0 3  
Since 1 July heating degree days 0 0  
Cooling Degree Days 17 14  
Month to date cooling degree days 163 140  
Year to date cooling degree days 1234 1028  
Since 1 June cooling degree days 1072 885  
Growing Degree Days 31 (Base 50)    
Moisture  
Dew Point 75 °F    
Average Humidity 81    
Maximum Humidity 91    
Minimum Humidity 70    
Precipitation  
Precipitation 0.56 in 0.21 in 2.29 in (1996)
Month to date precipitation 1.25 2.06  
Year to date precipitation 28.68 32.32  
Snow  
Snow 0.00 in - - ()
Month to date snowfall 0.0  
Since 1 July snowfall 0.0  
Snow Depth 0.00 in    
Sea Level Pressure  
Sea Level Pressure 30.10 in    
Wind  
Wind Speed 10 mph (WSW)    
Max Wind Speed 17 mph    
Max Gust Speed 30 mph    
Visibility 7 miles    
Events Rain , Thunderstorm    
T = Trace of Precipitation, MM = Missing Value Source: NWS Daily Summary

Daily Weather History Graph

Daily Weather History Graph

Search for Another Location

Airport or City:

Trip Planner

Search our weather history database for the weather conditions in past years. The results will help you decide how hot, cold, wet, or windy it might be!

Date:

Astronomy

Aug. 10, 2013 Rise Set
Actual Time 6:18 AM EDT 7:56 PM EDT
Civil Twilight 5:51 AM EDT 8:23 PM EDT
Nautical Twilight 5:18 AM EDT 8:56 PM EDT
Astronomical Twilight 4:43 AM EDT 9:30 PM EDT
Moon 9:51 AM EDT (8/10) 9:48 PM EDT (8/10)
Length of Visible Light 14h 32m
Length of Day
13h 38m
Waxing Crescent, 14% of the Moon is Illuminated
Aug 10
Waxing Crescent
Aug 14
First Quarter
Aug 20
Full
Aug 28
Last Quarter
Sep 5
New

Hourly Weather History & Observations

Time (EDT) Temp. Heat Index Dew Point Humidity Pressure Visibility Wind Dir Wind Speed Gust Speed Precip Events Conditions
12:51 AM 81.0 °F 87.3 °F 75.9 °F 85% 30.08 in 9.0 mi WSW 12.7 mph 20.7 mph N/A   Clear
1:51 AM 80.1 °F 85.4 °F 75.9 °F 87% 30.08 in 9.0 mi WSW 11.5 mph 19.6 mph N/A   Clear
2:51 AM 80.1 °F 85.4 °F 75.9 °F 87% 30.08 in 8.0 mi WSW 10.4 mph 19.6 mph N/A   Clear
3:51 AM 79.0 °F - 75.9 °F 90% 30.08 in 8.0 mi WSW 9.2 mph - N/A   Clear
4:51 AM 80.1 °F 85.4 °F 75.9 °F 87% 30.07 in 7.0 mi WSW 8.1 mph - N/A   Clear
5:51 AM 79.0 °F - 75.9 °F 90% 30.08 in 6.0 mi WSW 8.1 mph - N/A   Partly Cloudy
6:51 AM 79.0 °F - 75.9 °F 90% 30.09 in 5.0 mi WSW 8.1 mph - N/A   Clear
7:51 AM 81.0 °F 87.9 °F 77.0 °F 88% 30.10 in 7.0 mi WSW 9.2 mph - N/A   Overcast
8:51 AM 84.9 °F 95.3 °F 77.0 °F 77% 30.09 in 9.0 mi WSW 10.4 mph - N/A   Clear
9:51 AM 84.0 °F 92.6 °F 75.9 °F 76% 30.09 in 10.0 mi WSW 11.5 mph - N/A   Clear
10:51 AM 84.9 °F 95.3 °F 77.0 °F 77% 30.10 in 10.0 mi WSW 12.7 mph - N/A   Clear
11:51 AM 84.9 °F 94.1 °F 75.9 °F 74% 30.10 in 10.0 mi WSW 15.0 mph - N/A   Clear
12:51 PM 86.0 °F 96.9 °F 77.0 °F 74% 30.09 in 10.0 mi WSW 12.7 mph - N/A   Clear
1:51 PM 86.0 °F 96.0 °F 75.9 °F 72% 30.08 in 10.0 mi SW 13.8 mph 19.6 mph N/A   Clear
2:51 PM 87.1 °F 98.8 °F 77.0 °F 72% 30.07 in 10.0 mi SW 10.4 mph 18.4 mph N/A   Clear
3:51 PM 87.1 °F 98.8 °F 77.0 °F 72% 30.04 in 10.0 mi SW 12.7 mph 20.7 mph N/A   Clear
4:51 PM 86.0 °F 96.9 °F 77.0 °F 74% 30.04 in 10.0 mi SW 11.5 mph 19.6 mph N/A   Clear
5:51 PM 84.9 °F 95.3 °F 77.0 °F 77% 30.04 in 10.0 mi SW 11.5 mph - N/A   Clear
6:51 PM 84.0 °F 92.6 °F 75.9 °F 76% 30.05 in 9.0 mi SW 11.5 mph - N/A   Clear
7:51 PM 82.9 °F 91.8 °F 77.0 °F 82% 30.08 in 8.0 mi SW 9.2 mph 18.4 mph N/A   Clear
8:51 PM 82.0 °F 90.2 °F 77.0 °F 85% 30.08 in 9.0 mi WSW 8.1 mph - N/A   Clear
9:20 PM 80.6 °F 84.6 °F 71.6 °F 74% 30.12 in 10.0 mi NE 3.5 mph - N/A   Mostly Cloudy
9:51 PM 81.0 °F 85.8 °F 73.0 °F 77% 30.15 in 8.0 mi North 9.2 mph 19.6 mph N/A   Overcast
9:59 PM 77.0 °F - 71.6 °F 83% 30.16 in 2.0 mi NNW 11.5 mph 29.9 mph 0.06 in Rain Heavy Rain
10:10 PM 77.0 °F - 73.4 °F 89% 30.16 in 1.8 mi NW 16.1 mph 28.8 mph 0.08 in Rain Heavy Rain
10:15 PM 75.2 °F - 73.4 °F 94% 30.15 in 0.8 mi NW 9.2 mph 28.8 mph 0.24 in Rain Heavy Rain
10:23 PM 75.2 °F - 73.4 °F 94% 30.14 in 1.5 mi WNW 9.2 mph 17.3 mph 0.37 in Rain Rain
10:25 PM 75.2 °F - 73.4 °F 94% 30.14 in 2.0 mi WNW 4.6 mph 17.3 mph 0.37 in Rain , Thunderstorm Heavy Rain
10:31 PM 75.2 °F - 73.4 °F 94% 30.14 in 3.0 mi Variable 4.6 mph - 0.40 in Rain , Thunderstorm Rain
10:42 PM 77.0 °F - 73.4 °F 89% 30.14 in 4.0 mi West 6.9 mph - 0.42 in Rain , Thunderstorm Heavy Rain
10:51 PM 77.0 °F - 73.0 °F 88% 30.13 in 2.5 mi SW 3.5 mph - 0.45 in Rain , Thunderstorm Light Rain
10:56 PM 77.0 °F - 73.4 °F 89% 30.13 in 1.8 mi WSW 4.6 mph - 0.04 in Rain , Thunderstorm Heavy Rain
11:00 PM 75.2 °F - 73.4 °F 94% 30.13 in 2.0 mi West 5.8 mph - 0.06 in Rain Rain
11:09 PM 77.0 °F - 73.4 °F 89% 30.12 in 4.0 mi Calm Calm - 0.08 in Rain Light Rain
11:51 PM 78.1 °F - 73.9 °F 87% 30.11 in 6.0 mi WSW 6.9 mph - 0.11 in Rain Light Rain